Time,TemperatureF,DewpointF,PressureIn,WindDirection,WindDirectionDegrees,WindSpeedMPH,WindSpeedGustMPH,Humidity,HourlyPrecipIn,Conditions,Clouds,dailyrainin,SoftwareType,DateUTC
2013-08-18 00:01:00,61.9,53.9,30.23,North,0,0.0,0.0,76,0.00,,,0.00,WUHU21623XXSP,2013-08-18 04:01:00,
2013-08-18 00:06:00,61.7,54.0,30.23,North,0,0.0,0.0,76,0.00,,,0.00,WUHU21623XXSP,2013-08-18 04:06:00,
2013-08-18 00:11:00,61.7,54.0,30.23,North,0,0.0,0.0,76,0.00,,,0.00,WUHU21623XXSP,2013-08-18 04:11:00,
2013-08-18 00:16:00,61.7,54.0,30.23,North,0,0.0,0.0,76,0.00,,,0.00,WUHU21623XXSP,2013-08-18 04:16:00,
2013-08-18 00:21:00,61.5,53.9,30.23,North,0,0.0,0.0,76,0.00,,,0.00,WUHU21623XXSP,2013-08-18 04:21:00,
2013-08-18 00:26:00,61.5,53.9,30.22,North,0,0.0,0.0,76,0.00,,,0.00,WUHU21623XXSP,2013-08-18 04:26:00,
2013-08-18 00:31:00,61.5,53.9,30.22,North,0,0.0,0.0,76,0.00,,,0.00,WUHU21623XXSP,2013-08-18 04:31:00,
2013-08-18 00:36:00,61.3,54.2,30.22,North,0,0.0,0.0,77,0.00,,,0.00,WUHU21623XXSP,2013-08-18 04:36:00,
2013-08-18 00:41:00,61.3,54.1,30.22,North,0,0.0,0.0,77,0.00,,,0.00,WUHU21623XXSP,2013-08-18 04:41:00,
2013-08-18 00:46:00,61.2,53.9,30.22,North,0,0.0,0.0,77,0.00,,,0.00,WUHU21623XXSP,2013-08-18 04:46:00,
2013-08-18 00:51:00,61.0,53.8,30.22,North,0,0.0,0.0,77,0.00,,,0.00,WUHU21623XXSP,2013-08-18 04:51:00,
2013-08-18 00:56:00,61.0,53.8,30.22,North,0,0.0,0.0,77,0.00,,,0.00,WUHU21623XXSP,2013-08-18 04:56:00,
2013-08-18 01:01:00,60.6,53.8,30.22,North,0,0.0,0.0,78,0.00,,,0.00,WUHU21623XXSP,2013-08-18 05:01:00,
2013-08-18 01:06:00,60.6,53.8,30.22,North,0,0.0,0.0,78,0.00,,,0.00,WUHU21623XXSP,2013-08-18 05:06:00,
2013-08-18 01:11:00,60.4,53.8,30.22,North,0,0.0,0.0,78,0.00,,,0.00,WUHU21623XXSP,2013-08-18 05:11:00,
2013-08-18 01:16:00,60.4,53.6,30.21,North,0,0.0,0.0,78,0.00,,,0.00,WUHU21623XXSP,2013-08-18 05:16:00,
2013-08-18 01:21:00,60.3,53.4,30.22,North,0,0.0,0.0,78,0.00,,,0.00,WUHU21623XXSP,2013-08-18 05:21:00,
2013-08-18 01:26:00,60.1,53.2,30.22,North,0,0.0,0.0,79,0.00,,,0.00,WUHU21623XXSP,2013-08-18 05:26:00,
2013-08-18 01:31:00,60.1,53.6,30.22,North,0,0.0,0.0,79,0.00,,,0.00,WUHU21623XXSP,2013-08-18 05:31:00,
2013-08-18 01:36:00,59.9,53.4,30.22,North,0,0.0,0.0,79,0.00,,,0.00,WUHU21623XXSP,2013-08-18 05:36:00,
2013-08-18 01:41:00,59.7,53.2,30.22,North,0,0.0,0.0,79,0.00,,,0.00,WUHU21623XXSP,2013-08-18 05:41:00,
2013-08-18 01:46:00,59.7,53.6,30.22,North,0,0.0,0.0,80,0.00,,,0.00,WUHU21623XXSP,2013-08-18 05:46:00,
2013-08-18 01:51:00,59.5,53.4,30.22,North,0,0.0,0.0,80,0.00,,,0.00,WUHU21623XXSP,2013-08-18 05:51:00,
2013-08-18 01:56:00,59.5,53.4,30.22,North,0,0.0,0.0,80,0.00,,,0.00,WUHU21623XXSP,2013-08-18 05:56:00,
2013-08-18 02:01:00,59.4,53.2,30.22,North,0,0.0,0.0,80,0.00,,,0.00,WUHU21623XXSP,2013-08-18 06:01:00,
2013-08-18 02:06:00,59.2,53.1,30.22,North,0,0.0,0.0,80,0.00,,,0.00,WUHU21623XXSP,2013-08-18 06:06:00,
2013-08-18 02:11:00,59.0,53.1,30.22,North,0,0.0,0.0,80,0.00,,,0.00,WUHU21623XXSP,2013-08-18 06:11:00,
2013-08-18 02:16:00,58.8,53.0,30.22,North,0,0.0,0.0,81,0.00,,,0.00,WUHU21623XXSP,2013-08-18 06:16:00,
2013-08-18 02:21:00,58.8,53.0,30.23,North,0,0.0,0.0,81,0.00,,,0.00,WUHU21623XXSP,2013-08-18 06:21:00,
2013-08-18 02:26:00,58.8,53.0,30.22,North,0,0.0,0.0,81,0.00,,,0.00,WUHU21623XXSP,2013-08-18 06:26:00,
2013-08-18 02:31:00,58.8,53.0,30.22,North,0,0.0,0.0,81,0.00,,,0.00,WUHU21623XXSP,2013-08-18 06:31:00,
2013-08-18 02:36:00,58.8,53.3,30.22,North,0,0.0,0.0,82,0.00,,,0.00,WUHU21623XXSP,2013-08-18 06:36:00,
2013-08-18 02:41:00,58.8,53.3,30.22,North,0,0.0,0.0,82,0.00,,,0.00,WUHU21623XXSP,2013-08-18 06:41:00,
2013-08-18 02:46:00,58.8,53.3,30.22,North,0,0.0,0.0,82,0.00,,,0.00,WUHU21623XXSP,2013-08-18 06:46:00,
2013-08-18 02:51:00,58.6,53.2,30.22,North,0,0.0,0.0,82,0.00,,,0.00,WUHU21623XXSP,2013-08-18 06:51:00,
2013-08-18 02:56:00,58.5,53.0,30.22,North,0,0.0,0.0,82,0.00,,,0.00,WUHU21623XXSP,2013-08-18 06:56:00,
2013-08-18 03:01:00,58.5,53.0,30.22,North,0,0.0,0.0,82,0.00,,,0.00,WUHU21623XXSP,2013-08-18 07:01:00,
2013-08-18 03:06:00,58.3,53.1,30.22,North,0,0.0,0.0,83,0.00,,,0.00,WUHU21623XXSP,2013-08-18 07:06:00,
2013-08-18 03:11:00,58.3,53.1,30.22,North,0,0.0,0.0,83,0.00,,,0.00,WUHU21623XXSP,2013-08-18 07:11:00,
2013-08-18 03:16:00,58.1,53.0,30.22,North,0,0.0,0.0,83,0.00,,,0.00,WUHU21623XXSP,2013-08-18 07:16:00,
2013-08-18 03:21:00,57.9,52.8,30.22,North,0,0.0,0.0,83,0.00,,,0.00,WUHU21623XXSP,2013-08-18 07:21:00,
2013-08-18 03:26:00,57.9,52.8,30.22,North,0,0.0,0.0,83,0.00,,,0.00,WUHU21623XXSP,2013-08-18 07:26:00,
2013-08-18 03:31:00,57.9,52.8,30.22,North,0,0.0,0.0,83,0.00,,,0.00,WUHU21623XXSP,2013-08-18 07:31:00,
2013-08-18 03:36:00,57.9,52.8,30.22,North,0,0.0,0.0,83,0.00,,,0.00,WUHU21623XXSP,2013-08-18 07:36:00,
2013-08-18 03:41:00,57.7,52.8,30.22,North,0,0.0,0.0,83,0.00,,,0.00,WUHU21623XXSP,2013-08-18 07:41:00,
2013-08-18 03:46:00,57.7,52.9,30.22,North,0,0.0,0.0,84,0.00,,,0.00,WUHU21623XXSP,2013-08-18 07:46:00,
2013-08-18 03:51:00,57.7,52.9,30.22,North,0,0.0,0.0,84,0.00,,,0.00,WUHU21623XXSP,2013-08-18 07:51:00,
2013-08-18 03:56:00,57.6,52.7,30.22,North,0,0.0,0.0,84,0.00,,,0.00,WUHU21623XXSP,2013-08-18 07:56:00,
2013-08-18 04:01:00,57.6,52.7,30.22,North,0,0.0,0.0,84,0.00,,,0.00,WUHU21623XXSP,2013-08-18 08:01:00,
2013-08-18 04:06:00,57.4,52.6,30.22,North,0,0.0,0.0,84,0.00,,,0.00,WUHU21623XXSP,2013-08-18 08:06:00,
2013-08-18 04:11:00,57.4,52.6,30.21,North,0,0.0,0.0,84,0.00,,,0.00,WUHU21623XXSP,2013-08-18 08:11:00,
2013-08-18 04:16:00,57.4,52.6,30.22,North,0,0.0,0.0,84,0.00,,,0.00,WUHU21623XXSP,2013-08-18 08:16:00,
2013-08-18 04:21:00,57.4,52.6,30.22,North,0,0.0,0.0,84,0.00,,,0.00,WUHU21623XXSP,2013-08-18 08:21:00,
2013-08-18 04:26:00,57.2,52.7,30.21,North,0,0.0,0.0,85,0.00,,,0.00,WUHU21623XXSP,2013-08-18 08:26:00,
2013-08-18 04:31:00,57.2,52.7,30.22,North,0,0.0,0.0,85,0.00,,,0.00,WUHU21623XXSP,2013-08-18 08:31:00,
2013-08-18 04:36:00,57.0,52.5,30.22,North,0,0.0,0.0,85,0.00,,,0.00,WUHU21623XXSP,2013-08-18 08:36:00,
2013-08-18 04:41:00,57.0,52.5,30.22,North,0,0.0,0.0,85,0.00,,,0.00,WUHU21623XXSP,2013-08-18 08:41:00,
2013-08-18 04:46:00,57.0,52.5,30.22,North,0,0.0,0.0,85,0.00,,,0.00,WUHU21623XXSP,2013-08-18 08:46:00,
2013-08-18 04:51:00,57.0,52.8,30.22,North,0,0.0,0.0,86,0.00,,,0.00,WUHU21623XXSP,2013-08-18 08:51:00,
2013-08-18 04:56:00,57.0,52.8,30.22,North,0,0.0,0.0,86,0.00,,,0.00,WUHU21623XXSP,2013-08-18 08:56:00,
2013-08-18 05:01:00,57.0,52.8,30.22,North,0,0.0,0.0,86,0.00,,,0.00,WUHU21623XXSP,2013-08-18 09:01:00,
2013-08-18 05:06:00,57.0,52.8,30.22,North,0,0.0,0.0,86,0.00,,,0.00,WUHU21623XXSP,2013-08-18 09:06:00,
2013-08-18 05:11:00,57.0,52.8,30.22,North,0,0.0,0.0,86,0.00,,,0.00,WUHU21623XXSP,2013-08-18 09:11:00,
2013-08-18 05:16:00,57.0,52.8,30.22,North,0,0.0,0.0,86,0.00,,,0.00,WUHU21623XXSP,2013-08-18 09:16:00,
2013-08-18 05:21:00,57.0,52.8,30.22,North,0,0.0,0.0,86,0.00,,,0.00,WUHU21623XXSP,2013-08-18 09:21:00,
2013-08-18 05:26:00,57.0,52.8,30.22,North,0,0.0,0.0,86,0.00,,,0.00,WUHU21623XXSP,2013-08-18 09:26:00,
2013-08-18 05:31:00,57.0,52.8,30.22,North,0,0.0,0.0,86,0.00,,,0.00,WUHU21623XXSP,2013-08-18 09:31:00,
2013-08-18 05:50:00,56.8,53.0,30.22,North,0,0.0,0.0,87,0.00,,,0.00,WUHU21623XXSP,2013-08-18 09:50:00,
2013-08-18 06:01:00,57.0,53.2,30.22,North,0,0.0,0.0,87,0.00,,,0.00,WUHU21623XXSP,2013-08-18 10:01:00,
2013-08-18 06:06:00,57.0,53.2,30.22,North,0,0.0,0.0,87,0.00,,,0.00,WUHU21623XXSP,2013-08-18 10:06:00,
2013-08-18 06:11:00,57.0,53.2,30.22,North,0,0.0,0.0,87,0.00,,,0.00,WUHU21623XXSP,2013-08-18 10:11:00,
2013-08-18 06:16:00,57.0,53.2,30.22,North,0,0.0,0.0,87,0.00,,,0.00,WUHU21623XXSP,2013-08-18 10:16:00,
2013-08-18 06:21:00,57.0,53.2,30.22,North,0,0.0,0.0,87,0.00,,,0.00,WUHU21623XXSP,2013-08-18 10:21:00,
2013-08-18 06:26:00,57.0,53.2,30.23,North,0,0.0,0.0,87,0.00,,,0.00,WUHU21623XXSP,2013-08-18 10:26:00,
2013-08-18 06:31:00,57.0,53.2,30.23,North,0,0.0,0.0,87,0.00,,,0.00,WUHU21623XXSP,2013-08-18 10:31:00,
2013-08-18 06:36:00,57.0,53.2,30.22,North,0,0.0,0.0,87,0.00,,,0.00,WUHU21623XXSP,2013-08-18 10:36:00,
2013-08-18 06:41:00,57.0,53.2,30.23,North,0,0.0,0.0,87,0.00,,,0.00,WUHU21623XXSP,2013-08-18 10:41:00,
2013-08-18 06:46:00,57.0,53.2,30.23,North,0,0.0,0.0,87,0.00,,,0.00,WUHU21623XXSP,2013-08-18 10:46:00,
2013-08-18 06:51:00,57.0,53.2,30.23,North,0,0.0,0.0,87,0.00,,,0.00,WUHU21623XXSP,2013-08-18 10:51:00,
2013-08-18 06:56:00,57.0,53.2,30.23,North,0,0.0,0.0,87,0.00,,,0.00,WUHU21623XXSP,2013-08-18 10:56:00,
2013-08-18 07:01:00,57.0,53.5,30.23,North,0,0.0,0.0,88,0.00,,,0.00,WUHU21623XXSP,2013-08-18 11:01:00,
2013-08-18 07:06:00,57.0,53.5,30.23,North,0,0.0,0.0,88,0.00,,,0.00,WUHU21623XXSP,2013-08-18 11:06:00,
2013-08-18 07:11:00,57.0,53.5,30.23,North,0,0.0,0.0,88,0.00,,,0.00,WUHU21623XXSP,2013-08-18 11:11:00,
2013-08-18 07:16:00,57.0,53.5,30.24,North,0,0.0,0.0,88,0.00,,,0.00,WUHU21623XXSP,2013-08-18 11:16:00,
2013-08-18 07:21:00,57.2,53.7,30.24,North,0,0.0,0.0,88,0.00,,,0.00,WUHU21623XXSP,2013-08-18 11:21:00,
2013-08-18 07:26:00,57.4,53.7,30.24,North,0,0.0,0.0,88,0.00,,,0.00,WUHU21623XXSP,2013-08-18 11:26:00,
2013-08-18 07:31:00,57.4,53.9,30.24,North,0,0.0,0.0,88,0.00,,,0.00,WUHU21623XXSP,2013-08-18 11:31:00,
2013-08-18 07:36:00,57.4,53.9,30.24,North,0,0.0,0.0,88,0.00,,,0.00,WUHU21623XXSP,2013-08-18 11:36:00,
2013-08-18 07:41:00,57.6,54.4,30.24,North,0,0.0,0.0,89,0.00,,,0.00,WUHU21623XXSP,2013-08-18 11:41:00,
2013-08-18 07:46:00,57.7,54.4,30.24,North,0,0.0,0.0,89,0.00,,,0.00,WUHU21623XXSP,2013-08-18 11:46:00,
2013-08-18 07:51:00,57.9,54.7,30.24,North,0,0.0,0.0,89,0.00,,,0.00,WUHU21623XXSP,2013-08-18 11:51:00,
2013-08-18 07:56:00,58.3,55.1,30.24,North,0,0.0,0.0,89,0.00,,,0.00,WUHU21623XXSP,2013-08-18 11:56:00,
2013-08-18 08:01:00,58.8,55.3,30.24,North,0,0.0,0.0,89,0.00,,,0.00,WUHU21623XXSP,2013-08-18 12:01:00,
2013-08-18 08:06:00,59.0,55.8,30.24,North,0,0.0,0.0,89,0.00,,,0.00,WUHU21623XXSP,2013-08-18 12:06:00,
2013-08-18 08:11:00,59.4,56.0,30.24,North,0,0.0,0.0,89,0.00,,,0.00,WUHU21623XXSP,2013-08-18 12:11:00,
2013-08-18 08:16:00,59.7,56.5,30.24,North,0,0.0,0.0,89,0.00,,,0.00,WUHU21623XXSP,2013-08-18 12:16:00,
2013-08-18 08:21:00,60.1,56.9,30.24,North,0,0.0,0.0,89,0.00,,,0.00,WUHU21623XXSP,2013-08-18 12:21:00,
2013-08-18 08:26:00,60.6,57.2,30.24,North,0,0.0,0.0,89,0.00,,,0.00,WUHU21623XXSP,2013-08-18 12:26:00,
2013-08-18 08:31:00,61.0,57.8,30.25,North,0,0.0,0.0,89,0.00,,,0.00,WUHU21623XXSP,2013-08-18 12:31:00,
2013-08-18 08:36:00,61.3,58.1,30.25,North,0,0.0,0.0,89,0.00,,,0.00,WUHU21623XXSP,2013-08-18 12:36:00,
2013-08-18 08:41:00,61.7,58.8,30.25,North,0,0.0,0.0,90,0.00,,,0.00,WUHU21623XXSP,2013-08-18 12:41:00,
2013-08-18 08:46:00,62.2,59.4,30.24,North,0,0.0,0.0,90,0.00,,,0.00,WUHU21623XXSP,2013-08-18 12:46:00,
2013-08-18 08:51:00,62.6,59.5,30.25,North,0,0.0,0.0,90,0.00,,,0.00,WUHU21623XXSP,2013-08-18 12:51:00,
2013-08-18 08:56:00,63.1,59.9,30.25,North,0,0.0,0.0,89,0.00,,,0.00,WUHU21623XXSP,2013-08-18 12:56:00,
2013-08-18 09:01:00,63.3,60.1,30.25,North,0,0.0,0.0,89,0.00,,,0.00,WUHU21623XXSP,2013-08-18 13:01:00,
2013-08-18 09:06:00,64.0,60.6,30.25,North,0,0.0,0.0,89,0.00,,,0.00,WUHU21623XXSP,2013-08-18 13:06:00,
2013-08-18 09:11:00,64.2,61.0,30.25,North,0,0.0,0.0,89,0.00,,,0.00,WUHU21623XXSP,2013-08-18 13:11:00,
2013-08-18 09:16:00,64.2,61.3,30.25,North,0,0.0,0.0,90,0.00,,,0.00,WUHU21623XXSP,2013-08-18 13:16:00,
2013-08-18 09:21:00,64.8,61.8,30.25,North,0,0.0,0.0,90,0.00,,,0.00,WUHU21623XXSP,2013-08-18 13:21:00,
2013-08-18 09:26:00,64.9,61.8,30.25,North,0,0.0,0.0,90,0.00,,,0.00,WUHU21623XXSP,2013-08-18 13:26:00,
2013-08-18 09:31:00,65.1,62.2,30.25,North,0,0.0,0.0,90,0.00,,,0.00,WUHU21623XXSP,2013-08-18 13:31:00,
2013-08-18 09:36:00,65.7,62.7,30.25,North,0,0.0,0.0,90,0.00,,,0.00,WUHU21623XXSP,2013-08-18 13:36:00,
2013-08-18 09:41:00,66.0,63.0,30.25,NNE,22,1.7,2.2,90,0.00,,,0.00,WUHU21623XXSP,2013-08-18 13:41:00,
2013-08-18 09:46:00,66.0,63.0,30.24,North,0,0.0,0.0,90,0.00,,,0.00,WUHU21623XXSP,2013-08-18 13:46:00,
2013-08-18 09:51:00,66.4,63.0,30.24,North,0,0.0,0.0,89,0.00,,,0.00,WUHU21623XXSP,2013-08-18 13:51:00,
2013-08-18 09:56:00,66.7,63.4,30.24,North,0,0.0,0.0,89,0.00,,,0.00,WUHU21623XXSP,2013-08-18 13:56:00,
2013-08-18 10:01:00,66.9,63.4,30.24,North,0,0.0,0.0,89,0.00,,,0.00,WUHU21623XXSP,2013-08-18 14:01:00,
2013-08-18 10:06:00,67.6,63.9,30.25,North,0,0.0,0.0,88,0.00,,,0.00,WUHU21623XXSP,2013-08-18 14:06:00,
2013-08-18 10:11:00,67.8,63.9,30.25,North,0,0.0,0.0,88,0.00,,,0.00,WUHU21623XXSP,2013-08-18 14:11:00,
2013-08-18 10:16:00,68.0,64.3,30.24,North,0,0.0,0.0,88,0.00,,,0.00,WUHU21623XXSP,2013-08-18 14:16:00,
2013-08-18 10:21:00,68.5,64.8,30.24,South,180,2.7,2.7,88,0.00,,,0.00,WUHU21623XXSP,2013-08-18 14:21:00,
2013-08-18 10:26:00,68.9,64.8,30.24,North,0,0.0,0.0,87,0.00,,,0.00,WUHU21623XXSP,2013-08-18 14:26:00,
2013-08-18 10:31:00,69.3,65.2,30.24,North,0,0.0,0.0,87,0.00,,,0.00,WUHU21623XXSP,2013-08-18 14:31:00,
2013-08-18 10:36:00,69.6,65.5,30.24,North,0,0.0,0.0,86,0.00,,,0.00,WUHU21623XXSP,2013-08-18 14:36:00,
2013-08-18 10:41:00,70.2,65.7,30.24,North,0,0.0,0.0,86,0.00,,,0.00,WUHU21623XXSP,2013-08-18 14:41:00,
2013-08-18 10:46:00,70.3,65.9,30.24,North,0,1.6,1.6,86,0.00,,,0.00,WUHU21623XXSP,2013-08-18 14:46:00,
2013-08-18 10:51:00,70.9,66.1,30.24,North,0,1.6,1.6,85,0.00,,,0.00,WUHU21623XXSP,2013-08-18 14:51:00,
2013-08-18 10:56:00,71.2,66.5,30.24,NNW,337,3.6,3.6,85,0.00,,,0.00,WUHU21623XXSP,2013-08-18 14:56:00,
2013-08-18 11:01:00,71.4,66.3,30.24,North,0,0.0,0.0,84,0.00,,,0.00,WUHU21623XXSP,2013-08-18 15:01:00,
2013-08-18 11:06:00,71.8,66.3,30.24,NNW,337,1.9,2.7,83,0.00,,,0.00,WUHU21623XXSP,2013-08-18 15:06:00,
2013-08-18 11:11:00,72.1,66.5,30.24,NNW,337,2.7,2.7,83,0.00,,,0.00,WUHU21623XXSP,2013-08-18 15:11:00,
2013-08-18 11:16:00,72.3,66.9,30.24,NNW,337,1.6,1.6,83,0.00,,,0.00,WUHU21623XXSP,2013-08-18 15:16:00,
2013-08-18 11:21:00,72.9,67.1,30.24,NNW,337,2.3,2.7,82,0.00,,,0.00,WUHU21623XXSP,2013-08-18 15:21:00,
2013-08-18 11:26:00,73.0,66.9,30.24,North,0,1.6,1.6,81,0.00,,,0.00,WUHU21623XXSP,2013-08-18 15:26:00,
2013-08-18 11:31:00,73.8,67.6,30.24,North,0,0.7,0.7,81,0.00,,,0.00,WUHU21623XXSP,2013-08-18 15:31:00,
2013-08-18 11:36:00,73.9,67.5,30.24,North,0,0.0,0.0,80,0.00,,,0.00,WUHU21623XXSP,2013-08-18 15:36:00,
2013-08-18 11:41:00,74.1,67.5,30.24,North,0,0.0,0.0,79,0.00,,,0.00,WUHU21623XXSP,2013-08-18 15:41:00,
2013-08-18 11:46:00,74.5,67.6,30.23,North,0,0.0,0.0,79,0.00,,,0.00,WUHU21623XXSP,2013-08-18 15:46:00,
2013-08-18 11:51:00,74.8,67.2,30.23,North,0,2.7,2.7,77,0.00,,,0.00,WUHU21623XXSP,2013-08-18 15:51:00,
2013-08-18 11:56:00,74.7,66.2,30.23,North,0,0.0,0.0,75,0.00,,,0.00,WUHU21623XXSP,2013-08-18 15:56:00,
2013-08-18 12:01:00,74.8,64.4,30.23,North,0,0.0,0.0,70,0.00,,,0.00,WUHU21623XXSP,2013-08-18 16:01:00,
2013-08-18 12:06:00,75.2,64.3,30.23,NNE,22,2.2,2.2,69,0.00,,,0.00,WUHU21623XXSP,2013-08-18 16:06:00,
2013-08-18 12:11:00,75.9,65.5,30.23,North,0,0.0,0.0,70,0.00,,,0.00,WUHU21623XXSP,2013-08-18 16:11:00,
2013-08-18 12:16:00,75.7,65.7,30.23,North,0,0.0,0.0,71,0.00,,,0.00,WUHU21623XXSP,2013-08-18 16:16:00,
2013-08-18 12:21:00,75.9,65.5,30.23,North,0,0.0,0.0,70,0.00,,,0.00,WUHU21623XXSP,2013-08-18 16:21:00,
2013-08-18 12:26:00,75.9,65.0,30.23,NNE,22,2.2,2.2,69,0.00,,,0.00,WUHU21623XXSP,2013-08-18 16:26:00,
2013-08-18 12:31:00,75.7,64.8,30.22,North,0,2.7,2.7,69,0.00,,,0.00,WUHU21623XXSP,2013-08-18 16:31:00,
2013-08-18 12:36:00,75.6,64.7,30.22,North,0,1.6,1.6,69,0.00,,,0.00,WUHU21623XXSP,2013-08-18 16:36:00,
2013-08-18 12:41:00,75.7,64.8,30.22,North,0,0.0,0.0,69,0.00,,,0.00,WUHU21623XXSP,2013-08-18 16:41:00,
2013-08-18 12:46:00,75.7,64.4,30.21,North,0,0.0,0.0,68,0.00,,,0.00,WUHU21623XXSP,2013-08-18 16:46:00,
2013-08-18 12:51:00,75.9,65.5,30.21,North,0,0.0,0.0,70,0.00,,,0.00,WUHU21623XXSP,2013-08-18 16:51:00,
2013-08-18 12:56:00,76.1,65.5,30.21,North,0,0.0,0.0,70,0.00,,,0.00,WUHU21623XXSP,2013-08-18 16:56:00,
2013-08-18 13:01:00,76.8,65.5,30.21,NNW,337,3.6,3.6,68,0.00,,,0.00,WUHU21623XXSP,2013-08-18 17:01:00,
2013-08-18 13:06:00,76.8,65.0,30.21,North,0,0.0,0.0,67,0.00,,,0.00,WUHU21623XXSP,2013-08-18 17:06:00,
2013-08-18 13:11:00,76.8,65.0,30.21,NNE,22,2.0,2.2,67,0.00,,,0.00,WUHU21623XXSP,2013-08-18 17:11:00,
2013-08-18 13:16:00,76.8,64.6,30.20,North,0,0.0,0.0,65,0.00,,,0.00,WUHU21623XXSP,2013-08-18 17:16:00,
2013-08-18 13:21:00,76.8,64.6,30.21,North,0,0.0,0.0,66,0.00,,,0.00,WUHU21623XXSP,2013-08-18 17:21:00,
2013-08-18 13:26:00,76.6,64.0,30.21,NNW,337,1.8,1.8,65,0.00,,,0.00,WUHU21623XXSP,2013-08-18 17:26:00,
2013-08-18 13:31:00,76.6,63.5,30.20,NNW,337,1.6,2.5,64,0.00,,,0.00,WUHU21623XXSP,2013-08-18 17:31:00,
2013-08-18 13:36:00,76.8,63.7,30.20,NNW,337,2.2,2.2,64,0.00,,,0.00,WUHU21623XXSP,2013-08-18 17:36:00,
2013-08-18 13:41:00,76.8,63.7,30.20,North,0,2.9,2.9,64,0.00,,,0.00,WUHU21623XXSP,2013-08-18 17:41:00,
2013-08-18 13:46:00,76.6,63.1,30.20,North,0,0.0,0.0,63,0.00,,,0.00,WUHU21623XXSP,2013-08-18 17:46:00,
2013-08-18 13:51:00,76.5,62.9,30.20,North,0,0.0,0.0,64,0.00,,,0.00,WUHU21623XXSP,2013-08-18 17:51:00,
2013-08-18 13:56:00,76.5,63.8,30.20,North,0,0.0,0.0,64,0.00,,,0.00,WUHU21623XXSP,2013-08-18 17:56:00,
2013-08-18 14:01:00,76.6,63.5,30.20,North,0,0.0,0.0,64,0.00,,,0.00,WUHU21623XXSP,2013-08-18 18:01:00,
2013-08-18 14:06:00,76.5,63.3,30.20,NE,45,7.2,7.2,64,0.00,,,0.00,WUHU21623XXSP,2013-08-18 18:06:00,
2013-08-18 14:11:00,76.5,62.9,30.20,NE,50,2.5,3.4,63,0.00,,,0.00,WUHU21623XXSP,2013-08-18 18:11:00,
2013-08-18 14:16:00,76.1,63.0,30.20,SE,135,1.8,2.0,64,0.00,,,0.00,WUHU21623XXSP,2013-08-18 18:16:00,
2013-08-18 14:21:00,76.1,63.4,30.19,North,0,0.0,0.0,65,0.00,,,0.00,WUHU21623XXSP,2013-08-18 18:21:00,
2013-08-18 14:26:00,76.1,63.4,30.19,North,0,0.0,0.0,65,0.00,,,0.00,WUHU21623XXSP,2013-08-18 18:26:00,
2013-08-18 14:31:00,75.9,62.8,30.19,ESE,112,4.3,4.3,64,0.00,,,0.00,WUHU21623XXSP,2013-08-18 18:31:00,
2013-08-18 14:36:00,75.9,62.8,30.19,ESE,112,1.3,1.3,64,0.00,,,0.00,WUHU21623XXSP,2013-08-18 18:36:00,
2013-08-18 14:41:00,75.7,63.3,30.19,North,0,0.0,0.0,65,0.00,,,0.00,WUHU21623XXSP,2013-08-18 18:41:00,
2013-08-18 14:46:00,75.6,62.9,30.19,North,0,0.0,0.0,65,0.00,,,0.00,WUHU21623XXSP,2013-08-18 18:46:00,
2013-08-18 14:51:00,75.4,62.3,30.19,SSE,159,4.8,5.1,64,0.00,,,0.00,WUHU21623XXSP,2013-08-18 18:51:00,
2013-08-18 14:56:00,75.4,62.8,30.19,South,180,5.1,5.1,65,0.00,,,0.00,WUHU21623XXSP,2013-08-18 18:56:00,
2013-08-18 15:01:00,75.6,62.5,30.18,South,180,5.1,5.1,64,0.00,,,0.00,WUHU21623XXSP,2013-08-18 19:01:00,
2013-08-18 15:06:00,75.4,62.8,30.18,North,0,0.0,0.0,65,0.00,,,0.00,WUHU21623XXSP,2013-08-18 19:06:00,
2013-08-18 15:11:00,75.4,62.8,30.18,North,0,0.0,0.0,65,0.00,,,0.00,WUHU21623XXSP,2013-08-18 19:11:00,
2013-08-18 15:16:00,75.4,62.3,30.18,North,0,0.0,0.0,64,0.00,,,0.00,WUHU21623XXSP,2013-08-18 19:16:00,
2013-08-18 15:21:00,75.6,62.5,30.18,North,0,0.0,0.0,64,0.00,,,0.00,WUHU21623XXSP,2013-08-18 19:21:00,
2013-08-18 15:26:00,75.7,62.9,30.18,North,0,0.0,0.0,65,0.00,,,0.00,WUHU21623XXSP,2013-08-18 19:26:00,
2013-08-18 15:31:00,75.7,63.1,30.18,North,0,0.0,0.0,65,0.00,,,0.00,WUHU21623XXSP,2013-08-18 19:31:00,
2013-08-18 15:36:00,75.6,62.9,30.17,North,0,0.0,0.0,65,0.00,,,0.00,WUHU21623XXSP,2013-08-18 19:36:00,
2013-08-18 15:41:00,75.6,62.5,30.17,SE,135,5.6,5.6,64,0.00,,,0.00,WUHU21623XXSP,2013-08-18 19:41:00,
2013-08-18 15:46:00,75.4,62.5,30.17,SE,135,1.8,1.8,64,0.00,,,0.00,WUHU21623XXSP,2013-08-18 19:46:00,
2013-08-18 15:51:00,75.4,61.9,30.17,North,0,0.0,0.0,63,0.00,,,0.00,WUHU21623XXSP,2013-08-18 19:51:00,
2013-08-18 15:56:00,75.4,61.9,30.16,NNE,22,1.6,1.6,63,0.00,,,0.00,WUHU21623XXSP,2013-08-18 19:56:00,
2013-08-18 16:01:00,75.4,62.3,30.16,NNE,22,1.1,1.6,64,0.00,,,0.00,WUHU21623XXSP,2013-08-18 20:01:00,
2013-08-18 16:06:00,75.0,62.4,30.16,North,0,0.0,0.0,65,0.00,,,0.00,WUHU21623XXSP,2013-08-18 20:06:00,
2013-08-18 16:11:00,75.0,62.4,30.16,North,0,0.0,0.0,65,0.00,,,0.00,WUHU21623XXSP,2013-08-18 20:11:00,
2013-08-18 16:16:00,74.8,61.8,30.16,North,0,0.0,0.0,64,0.00,,,0.00,WUHU21623XXSP,2013-08-18 20:16:00,
2013-08-18 16:21:00,74.8,61.8,30.16,North,0,0.0,0.0,64,0.00,,,0.00,WUHU21623XXSP,2013-08-18 20:21:00,
2013-08-18 16:26:00,74.8,61.8,30.16,North,0,0.0,0.0,63,0.00,,,0.00,WUHU21623XXSP,2013-08-18 20:26:00,
2013-08-18 16:31:00,75.0,62.0,30.16,North,0,0.0,0.0,64,0.00,,,0.00,WUHU21623XXSP,2013-08-18 20:31:00,
2013-08-18 16:36:00,75.0,62.0,30.16,North,0,0.0,0.0,64,0.00,,,0.00,WUHU21623XXSP,2013-08-18 20:36:00,
2013-08-18 16:41:00,75.0,62.0,30.16,North,0,0.0,0.0,64,0.00,,,0.00,WUHU21623XXSP,2013-08-18 20:41:00,
2013-08-18 16:46:00,75.0,62.0,30.16,North,0,0.0,0.0,65,0.00,,,0.00,WUHU21623XXSP,2013-08-18 20:46:00,
2013-08-18 16:51:00,75.0,62.4,30.16,North,0,0.0,0.0,65,0.00,,,0.00,WUHU21623XXSP,2013-08-18 20:51:00,
2013-08-18 16:56:00,75.0,62.4,30.15,North,0,0.0,0.0,65,0.00,,,0.00,WUHU21623XXSP,2013-08-18 20:56:00,
2013-08-18 17:01:00,74.8,62.7,30.15,North,0,0.0,0.0,66,0.00,,,0.00,WUHU21623XXSP,2013-08-18 21:01:00,
2013-08-18 17:06:00,74.5,62.3,30.15,North,0,0.0,0.0,66,0.00,,,0.00,WUHU21623XXSP,2013-08-18 21:06:00,
2013-08-18 17:11:00,74.5,62.3,30.15,North,0,0.0,0.0,66,0.00,,,0.00,WUHU21623XXSP,2013-08-18 21:11:00,
2013-08-18 17:16:00,74.3,62.2,30.15,North,0,0.0,0.0,66,0.00,,,0.00,WUHU21623XXSP,2013-08-18 21:16:00,
2013-08-18 17:21:00,74.3,62.3,30.15,North,0,0.0,0.0,65,0.00,,,0.00,WUHU21623XXSP,2013-08-18 21:21:00,
2013-08-18 17:26:00,74.1,61.6,30.15,North,0,0.0,0.0,65,0.00,,,0.00,WUHU21623XXSP,2013-08-18 21:26:00,
2013-08-18 17:31:00,74.1,61.6,30.15,North,0,0.0,0.0,65,0.00,,,0.00,WUHU21623XXSP,2013-08-18 21:31:00,
2013-08-18 17:36:00,74.1,61.6,30.15,North,0,0.0,0.0,65,0.00,,,0.00,WUHU21623XXSP,2013-08-18 21:36:00,
2013-08-18 17:41:00,74.1,62.0,30.14,North,0,0.0,0.0,66,0.00,,,0.00,WUHU21623XXSP,2013-08-18 21:41:00,
2013-08-18 17:46:00,73.9,61.4,30.15,North,0,0.0,0.0,65,0.00,,,0.00,WUHU21623XXSP,2013-08-18 21:46:00,
2013-08-18 17:51:00,74.1,61.6,30.14,North,0,0.0,0.0,65,0.00,,,0.00,WUHU21623XXSP,2013-08-18 21:51:00,
2013-08-18 17:56:00,74.1,61.6,30.14,North,0,0.0,0.0,65,0.00,,,0.00,WUHU21623XXSP,2013-08-18 21:56:00,
2013-08-18 18:01:00,74.1,61.1,30.14,North,0,0.0,0.0,64,0.00,,,0.00,WUHU21623XXSP,2013-08-18 22:01:00,
2013-08-18 18:06:00,74.1,61.1,30.14,North,0,0.0,0.0,64,0.00,,,0.00,WUHU21623XXSP,2013-08-18 22:06:00,
2013-08-18 18:11:00,74.3,60.9,30.14,North,0,0.0,0.0,63,0.00,,,0.00,WUHU21623XXSP,2013-08-18 22:11:00,
2013-08-18 18:16:00,74.5,61.3,30.14,North,0,0.0,0.0,65,0.00,,,0.00,WUHU21623XXSP,2013-08-18 22:16:00,
2013-08-18 18:21:00,74.5,62.3,30.14,North,0,0.0,0.0,66,0.00,,,0.00,WUHU21623XXSP,2013-08-18 22:21:00,
2013-08-18 18:26:00,74.5,62.3,30.14,North,0,0.0,0.0,66,0.00,,,0.00,WUHU21623XXSP,2013-08-18 22:26:00,
2013-08-18 18:32:00,74.5,62.3,30.14,North,0,0.0,0.0,66,0.00,,,0.00,WUHU21623XXSP,2013-08-18 22:32:00,
2013-08-18 18:37:00,74.5,62.8,30.14,North,0,0.0,0.0,67,0.00,,,0.00,WUHU21623XXSP,2013-08-18 22:37:00,
2013-08-18 18:42:00,74.3,62.8,30.14,North,0,0.0,0.0,67,0.00,,,0.00,WUHU21623XXSP,2013-08-18 22:42:00,
2013-08-18 18:47:00,74.3,62.6,30.14,North,0,0.0,0.0,67,0.00,,,0.00,WUHU21623XXSP,2013-08-18 22:47:00,
2013-08-18 18:52:00,74.3,62.5,30.14,North,0,0.0,0.0,67,0.00,,,0.00,WUHU21623XXSP,2013-08-18 22:52:00,
2013-08-18 18:57:00,74.1,62.5,30.14,North,0,0.0,0.0,67,0.00,,,0.00,WUHU21623XXSP,2013-08-18 22:57:00,
2013-08-18 19:02:00,73.9,62.3,30.14,North,0,0.0,0.0,67,0.00,,,0.00,WUHU21623XXSP,2013-08-18 23:02:00,
2013-08-18 19:07:00,73.9,62.3,30.14,North,0,0.0,0.0,67,0.00,,,0.00,WUHU21623XXSP,2013-08-18 23:07:00,
2013-08-18 19:12:00,73.8,62.1,30.13,North,0,0.0,0.0,67,0.00,,,0.00,WUHU21623XXSP,2013-08-18 23:12:00,
2013-08-18 19:17:00,73.6,62.0,30.14,North,0,0.0,0.0,67,0.00,,,0.00,WUHU21623XXSP,2013-08-18 23:17:00,
2013-08-18 19:22:00,73.4,61.8,30.14,North,0,0.0,0.0,67,0.00,,,0.00,WUHU21623XXSP,2013-08-18 23:22:00,
2013-08-18 19:27:00,73.2,61.6,30.13,North,0,0.0,0.0,67,0.00,,,0.00,WUHU21623XXSP,2013-08-18 23:27:00,
2013-08-18 19:32:00,73.0,61.9,30.14,North,0,0.0,0.0,68,0.00,,,0.00,WUHU21623XXSP,2013-08-18 23:32:00,
2013-08-18 19:37:00,73.0,61.9,30.13,North,0,0.0,0.0,68,0.00,,,0.00,WUHU21623XXSP,2013-08-18 23:37:00,
2013-08-18 19:42:00,72.7,62.0,30.14,North,0,0.0,0.0,69,0.00,,,0.00,WUHU21623XXSP,2013-08-18 23:42:00,
2013-08-18 19:47:00,72.3,61.6,30.14,North,0,0.0,0.0,69,0.00,,,0.00,WUHU21623XXSP,2013-08-18 23:47:00,
2013-08-18 19:52:00,72.3,62.1,30.13,North,0,0.0,0.0,70,0.00,,,0.00,WUHU21623XXSP,2013-08-18 23:52:00,
2013-08-18 19:57:00,72.0,62.1,30.13,North,0,0.0,0.0,71,0.00,,,0.00,WUHU21623XXSP,2013-08-18 23:57:00,
2013-08-18 20:02:00,71.8,61.9,30.13,North,0,0.0,0.0,71,0.00,,,0.00,WUHU21623XXSP,2013-08-19 00:02:00,
2013-08-18 20:07:00,71.4,61.5,30.13,North,0,0.0,0.0,71,0.00,,,0.00,WUHU21623XXSP,2013-08-19 00:07:00,
2013-08-18 20:12:00,71.2,61.4,30.13,North,0,0.0,0.0,71,0.00,,,0.00,WUHU21623XXSP,2013-08-19 00:12:00,
2013-08-18 20:17:00,70.9,61.4,30.13,North,0,0.0,0.0,71,0.00,,,0.00,WUHU21623XXSP,2013-08-19 00:17:00,
2013-08-18 20:22:00,70.7,61.2,30.13,North,0,0.0,0.0,72,0.00,,,0.00,WUHU21623XXSP,2013-08-19 00:22:00,
2013-08-18 20:27:00,70.3,60.5,30.13,North,0,0.0,0.0,71,0.00,,,0.00,WUHU21623XXSP,2013-08-19 00:27:00,
2013-08-18 20:32:00,70.2,60.7,30.13,North,0,0.0,0.0,72,0.00,,,0.00,WUHU21623XXSP,2013-08-19 00:32:00,
2013-08-18 20:37:00,70.0,60.5,30.14,North,0,0.0,0.0,72,0.00,,,0.00,WUHU21623XXSP,2013-08-19 00:37:00,
2013-08-18 20:42:00,69.4,60.1,30.13,North,0,0.0,0.0,73,0.00,,,0.00,WUHU21623XXSP,2013-08-19 00:42:00,
2013-08-18 20:47:00,69.3,60.2,30.13,North,0,0.0,0.0,73,0.00,,,0.00,WUHU21623XXSP,2013-08-19 00:47:00,
2013-08-18 20:52:00,69.1,60.0,30.13,North,0,0.0,0.0,74,0.00,,,0.00,WUHU21623XXSP,2013-08-19 00:52:00,
2013-08-18 20:57:00,68.7,59.7,30.14,North,0,0.0,0.0,73,0.00,,,0.00,WUHU21623XXSP,2013-08-19 00:57:00,
2013-08-18 21:02:00,68.4,59.4,30.14,North,0,0.0,0.0,73,0.00,,,0.00,WUHU21623XXSP,2013-08-19 01:02:00,
2013-08-18 21:07:00,68.2,59.6,30.14,North,0,0.0,0.0,74,0.00,,,0.00,WUHU21623XXSP,2013-08-19 01:07:00,
2013-08-18 21:12:00,67.8,59.3,30.14,North,0,0.0,0.0,74,0.00,,,0.00,WUHU21623XXSP,2013-08-19 01:12:00,
2013-08-18 21:17:00,67.6,59.1,30.14,North,0,0.0,0.0,74,0.00,,,0.00,WUHU21623XXSP,2013-08-19 01:17:00,
2013-08-18 21:22:00,67.5,58.9,30.14,North,0,0.0,0.0,74,0.00,,,0.00,WUHU21623XXSP,2013-08-19 01:22:00,
2013-08-18 21:27:00,67.3,58.7,30.14,North,0,0.0,0.0,74,0.00,,,0.00,WUHU21623XXSP,2013-08-19 01:27:00,
2013-08-18 21:32:00,66.9,58.7,30.14,North,0,0.0,0.0,75,0.00,,,0.00,WUHU21623XXSP,2013-08-19 01:32:00,
2013-08-18 21:37:00,66.7,58.5,30.15,North,0,0.0,0.0,75,0.00,,,0.00,WUHU21623XXSP,2013-08-19 01:37:00,
2013-08-18 21:42:00,66.6,58.4,30.15,North,0,0.0,0.0,75,0.00,,,0.00,WUHU21623XXSP,2013-08-19 01:42:00,
2013-08-18 21:47:00,66.4,58.2,30.15,North,0,0.0,0.0,75,0.00,,,0.00,WUHU21623XXSP,2013-08-19 01:47:00,
2013-08-18 21:52:00,66.2,58.2,30.15,North,0,0.0,0.0,76,0.00,,,0.00,WUHU21623XXSP,2013-08-19 01:52:00,
2013-08-18 21:57:00,66.2,58.4,30.15,North,0,0.0,0.0,76,0.00,,,0.00,WUHU21623XXSP,2013-08-19 01:57:00,
2013-08-18 22:02:00,66.0,58.6,30.15,North,0,0.0,0.0,77,0.00,,,0.00,WUHU21623XXSP,2013-08-19 02:02:00,
2013-08-18 22:07:00,66.0,58.6,30.15,North,0,0.0,0.0,77,0.00,,,0.00,WUHU21623XXSP,2013-08-19 02:07:00,
2013-08-18 22:12:00,66.0,58.6,30.15,North,0,0.0,0.0,77,0.00,,,0.00,WUHU21623XXSP,2013-08-19 02:12:00,
2013-08-18 22:17:00,66.0,58.6,30.15,North,0,0.0,0.0,77,0.00,,,0.00,WUHU21623XXSP,2013-08-19 02:17:00,
2013-08-18 22:22:00,66.0,58.6,30.15,North,0,0.0,0.0,77,0.00,,,0.00,WUHU21623XXSP,2013-08-19 02:22:00,
2013-08-18 22:27:00,66.0,58.6,30.15,North,0,0.0,0.0,77,0.00,,,0.00,WUHU21623XXSP,2013-08-19 02:27:00,
2013-08-18 22:32:00,66.0,58.6,30.15,North,0,0.0,0.0,77,0.00,,,0.00,WUHU21623XXSP,2013-08-19 02:32:00,
2013-08-18 22:37:00,66.0,59.0,30.15,North,0,0.0,0.0,78,0.00,,,0.00,WUHU21623XXSP,2013-08-19 02:37:00,
2013-08-18 22:42:00,65.8,58.8,30.15,North,0,0.0,0.0,78,0.00,,,0.00,WUHU21623XXSP,2013-08-19 02:42:00,
2013-08-18 22:47:00,65.8,58.8,30.15,North,0,0.0,0.0,78,0.00,,,0.00,WUHU21623XXSP,2013-08-19 02:47:00,
2013-08-18 22:52:00,65.8,58.8,30.15,North,0,0.0,0.0,78,0.00,,,0.00,WUHU21623XXSP,2013-08-19 02:52:00,
2013-08-18 22:57:00,65.8,58.8,30.15,North,0,0.0,0.0,78,0.00,,,0.00,WUHU21623XXSP,2013-08-19 02:57:00,
2013-08-18 23:02:00,65.8,58.8,30.15,North,0,0.0,0.0,78,0.00,,,0.00,WUHU21623XXSP,2013-08-19 03:02:00,
2013-08-18 23:07:00,65.7,58.6,30.15,North,0,0.0,0.0,78,0.00,,,0.00,WUHU21623XXSP,2013-08-19 03:07:00,
2013-08-18 23:12:00,65.7,58.6,30.14,North,0,0.0,0.0,78,0.00,,,0.00,WUHU21623XXSP,2013-08-19 03:12:00,
2013-08-18 23:17:00,65.7,58.6,30.14,North,0,0.0,0.0,78,0.00,,,0.00,WUHU21623XXSP,2013-08-19 03:17:00,
2013-08-18 23:22:00,65.7,58.6,30.14,North,0,0.0,0.0,78,0.00,,,0.00,WUHU21623XXSP,2013-08-19 03:22:00,
2013-08-18 23:27:00,65.5,58.4,30.14,North,0,0.0,0.0,78,0.00,,,0.00,WUHU21623XXSP,2013-08-19 03:27:00,
2013-08-18 23:32:00,65.5,58.4,30.14,North,0,0.0,0.0,78,0.00,,,0.00,WUHU21623XXSP,2013-08-19 03:32:00,
2013-08-18 23:37:00,65.5,58.4,30.14,North,0,0.0,0.0,78,0.00,,,0.00,WUHU21623XXSP,2013-08-19 03:37:00,
2013-08-18 23:42:00,65.3,58.3,30.14,North,0,0.0,0.0,78,0.00,,,0.00,WUHU21623XXSP,2013-08-19 03:42:00,
2013-08-18 23:47:00,65.1,58.1,30.14,North,0,0.0,0.0,78,0.00,,,0.00,WUHU21623XXSP,2013-08-19 03:47:00,
2013-08-18 23:52:00,65.1,58.1,30.14,North,0,0.0,0.0,78,0.00,,,0.00,WUHU21623XXSP,2013-08-19 03:52:00,
2013-08-18 23:57:00,65.1,58.1,30.14,North,0,0.0,0.0,78,0.00,,,0.00,WUHU21623XXSP,2013-08-19 03:57:00,